Tracking 31027 objects as of 19-Jul-2025
HD Live streaming from Space Station
objects crossing your sky now

OPS 4682 DEB

Track OPS 4682 DEB now!
10-day predictions


NORAD ID: 38361
Int'l Code: 1965-027BN
Perigee: 1,241.9 km
Apogee: 1,295.2 km
Inclination: 90.2 °
Period: 110.8 minutes
Semi major axis: 7639 km
RCS: 0.0081 m2 (small)
Launch date: April 3, 1965
Source: United States (US)
Launch site: AIR FORCE WESTERN TEST RANGE (AFWTR)

Note: This is SATELLITE DEBRIS
Your satellite tracking list
FENGYUN 1C DEB
Track 1 satellite(s)




NASA's NSSDC Master Catalog

Two Line Element Set (TLE):
1 38361U 65027BN  25197.43801656  .00000440  00000-0  14283-2 0  9996
2 38361  90.2357   4.2444 0034897  70.2635 290.2246 13.00179168542317
Source of the keplerian elements: AFSPC